PROBA-1 1 26958U 01049B 25310.29169579 .00003125 00000+0 21052-3 0 9996 2 26958 97.9576 306.2741 0057025 154.7001 205.7038 15.06153200310052 CUTE-1 (CO-55) 1 27844U 03031E 25309.98622433 .00000451 00000+0 21491-3 0 9997 2 27844 98.6778 316.3617 0010644 111.5510 248.6805 14.24130870159905 CUBESAT XI-IV (CO-57) 1 27848U 03031J 25310.00525989 .00000388 00000+0 19012-3 0 9999 2 27848 98.6804 316.2711 0010364 127.5860 232.6262 14.23446396159628 APRIZESAT 4 1 35684U 09041D 25310.16015672 .00001204 00000+0 15165-3 0 9996 2 35684 98.1686 15.8146 0042925 326.1005 33.7465 14.83368423878294 APRIZESAT 3 1 35686U 09041F 25309.86895484 .00003183 00000+0 28373-3 0 9993 2 35686 98.1766 87.9886 0064251 84.5264 276.3280 14.95207435882994 PROBA-2 1 36037U 09059B 25310.25707855 .00000463 00000+0 11871-3 0 9995 2 36037 98.2389 131.7718 0012071 247.5857 112.4062 14.54665265849110 APRIZESAT 5 1 37792U 11044E 25310.28896468 .00002342 00000+0 30694-3 0 9995 2 37792 98.2317 232.2865 0053055 1.9535 358.1873 14.80398068765807 APRIZESAT 6 1 37793U 11044F 25310.29712954 .00001438 00000+0 21141-3 0 9996 2 37793 98.2450 211.1598 0044892 79.0670 34.4966 14.76404264764256 PROBA-V 1 39159U 13021A 25309.89035468 .00000136 00000+0 77675-4 0 9991 2 39159 98.3359 294.8431 0005328 71.7363 288.4396 14.23533166649342 APRIZESAT 7 1 39416U 13066A 25310.30995271 .00002095 00000+0 21680-3 0 9991 2 39416 97.7414 262.2691 0035032 228.5985 131.2221 14.90719307648019 APRIZESAT 8 1 39425U 13066K 25309.85573707 .00002053 00000+0 23162-3 0 9996 2 39425 97.7943 255.9227 0045217 301.9886 57.6939 14.86949221646472 BUGSAT-1 (TITA) 1 40014U 14033E 25310.28020365 .00019669 00000+0 11160-2 0 9998 2 40014 98.0606 25.1331 0029087 218.8958 141.0179 15.12637783622109 SAUDISAT 4 1 40016U 14033G 25310.31568809 .00001247 00000+0 17227-3 0 9998 2 40016 97.7277 99.6655 0046542 79.1679 281.4766 14.79068880613120 APRIZESAT 9 1 40018U 14033J 25310.28206073 .00001478 00000+0 22608-3 0 9993 2 40018 97.8763 84.4333 0066315 195.9935 163.9181 14.73772053610726 APRIZESAT 10 1 40019U 14033K 25310.31258039 .00001130 00000+0 18627-3 0 9998 2 40019 97.9383 77.7112 0078030 265.4900 93.7390 14.70487472609497 TECHDEMOSAT-1 (TDS-1) 1 40076U 14037H 25309.87603118 .00011061 00000+0 71412-3 0 9991 2 40076 98.3612 276.0386 0005613 315.5050 44.5725 15.08445699614508 TECHNOSAT 1 42829U 17042E 25310.24996990 .00005710 00000+0 42692-3 0 9996 2 42829 97.4048 112.0450 0020084 131.3129 228.9830 15.02983717453193 FLYING LAPTOP 1 42831U 17042G 25310.30596748 .00003920 00000+0 32293-3 0 9990 2 42831 97.4181 110.6242 0012051 167.0085 193.1451 14.99558527453036 HAWK-A 1 43765U 18099H 25310.07926568 .00010310 00000+0 46311-3 0 9998 2 43765 97.4270 0.3551 0037627 351.4905 8.5688 15.20700109379146 HAWK-B 1 43794U 18099AN 25310.25155406 .00009311 00000+0 43750-3 0 9998 2 43794 97.4314 0.3557 0034741 7.1385 353.0337 15.19277798379144 HAWK-C 1 43799U 18099AT 25310.10578904 .00010390 00000+0 44077-3 0 9991 2 43799 97.4248 0.3354 0040656 351.5859 8.4691 15.22528576379897 SALSAT 1 46495U 20068K 25309.93906180 .00010376 00000+0 41329-3 0 9997 2 46495 97.8759 295.2570 0011288 14.8450 345.3116 15.25383650281278 HAWK-2C 1 47502U 21006CT 25310.10723136 .00009528 00000+0 32221-3 0 9997 2 47502 97.2612 353.9879 0005613 283.9449 76.1168 15.30820049265324 HAWK-2A 1 47505U 21006CW 25310.10945119 .00008427 00000+0 28579-3 0 9995 2 47505 97.2659 354.5396 0005363 288.0083 72.0574 15.30764583265327 HAWK-2B 1 47508U 21006CZ 25310.10731546 .00009626 00000+0 32552-3 0 9993 2 47508 97.2530 353.2469 0005901 284.7602 75.2985 15.30814486265322 HAWK-3B 1 48931U 21059BE 25310.20799203 .00034223 00000+0 55867-3 0 9992 2 48931 97.6718 123.8173 0007355 70.9078 289.2970 15.52480910243079 HAWK-3C 1 48948U 21059BX 25310.07887349 .00035416 00000+0 57789-3 0 9994 2 48948 97.6881 128.9048 0008076 72.4418 287.7716 15.52480062243058 HAWK-3A 1 48957U 21059CG 25310.01424267 .00031288 00000+0 51126-3 0 9996 2 48957 97.6807 126.2459 0007503 71.7150 288.4918 15.52470485243041 HAWK-5C 1 52754U 22057Y 25310.31755808 .00024211 00000+0 57077-3 0 9995 2 52754 97.6357 92.6208 0006236 149.1806 210.9808 15.41890366191894 HAWK-5B 1 52756U 22057AA 25310.31733410 .00024141 00000+0 56906-3 0 9994 2 52756 97.6341 90.9861 0006627 144.9287 215.2396 15.41892715191895 HAWK-5A 1 52757U 22057AB 25310.31706577 .00025309 00000+0 59642-3 0 9996 2 52757 97.6352 91.8043 0006859 147.3124 212.8548 15.41889242191897 HAWK-6B 1 55324U 23011A 25309.77249064 .00006587 00000+0 30794-3 0 9995 2 55324 40.5141 212.4342 0003892 276.2121 83.8244 15.20006955153806 HAWK-6C 1 55326U 23011C 25309.77191848 .00006588 00000+0 30798-3 0 9998 2 55326 40.4826 209.6390 0003429 265.2257 94.8160 15.20002275153813 HAWK-6A 1 55327U 23011D 25309.77193641 .00006567 00000+0 30701-3 0 9993 2 55327 40.4990 211.0763 0003160 270.7011 89.3435 15.20007608153817 HAWK-7A 1 56191U 23054P 25308.90973089 .00009095 00000+0 31672-3 0 9993 2 56191 97.2953 196.3846 0007254 141.7229 218.4528 15.29870489142785 HAWK-7B 1 56193U 23054R 25309.23666469 .00009038 00000+0 31519-3 0 9990 2 56193 97.2944 194.8888 0007740 144.8593 215.3160 15.29821586142832 HAWK-7C 1 56200U 23054Y 25309.43266669 .00009097 00000+0 31769-3 0 9991 2 56200 97.2988 195.9140 0006514 149.4855 210.6766 15.29782026142860